New York, NY

7:01 PM EDT on July 27, 2017 (GMT -0400)
La Guardia

Weather History for KLGA - June, 2013

Change the Weather History Date:

Wednesday, June 5, 2013

  Actual Average Record
Temperature  
Mean Temperature 67 °F 69 °F  
Max Temperature 74 °F 78 °F 91 °F (1953)
Min Temperature 59 °F 61 °F 49 °F (1945)
Degree Days  
Heating Degree Days 0 1  
Month to date heating degree days 0 7  
Since 1 June heating degree days 0 7  
Since 1 July heating degree days 4435 4655  
Cooling Degree Days 2 5  
Month to date cooling degree days 45 24  
Year to date cooling degree days 133 90  
Since 1 June cooling degree days 45 24  
Growing Degree Days 16 (Base 50)    
Moisture  
Dew Point 43 °F    
Average Humidity 52    
Maximum Humidity 72    
Minimum Humidity 31    
Precipitation  
Precipitation 0.00 in 0.14 in 1.78 in (1992)
Month to date precipitation 1.07 0.70  
Year to date precipitation 15.48 18.39  
Snow  
Snow 0.00 in 0.00 in - ()
Month to date snowfall 0.0 0.0  
Since 1 July snowfall 22.2 26.9  
Snow Depth 0.00 in    
Sea Level Pressure  
Sea Level Pressure 30.15 in    
Wind  
Wind Speed 7 mph (East)    
Max Wind Speed 16 mph    
Max Gust Speed 21 mph    
Visibility 10 miles    
Events      
T = Trace of Precipitation, MM = Missing Value Source: NWS Daily Summary

Daily Weather History Graph

Daily Weather History Graph

Search for Another Location

Airport or City:

Trip Planner

Search our weather history database for the weather conditions in past years. The results will help you decide how hot, cold, wet, or windy it might be!

Date:

Astronomy

Jun. 05, 2013 Rise Set
Actual Time 5:24 AM EDT 8:23 PM EDT
Civil Twilight 4:51 AM EDT 8:56 PM EDT
Nautical Twilight 4:10 AM EDT 9:38 PM EDT
Astronomical Twilight 3:21 AM EDT 10:27 PM EDT
Moon 3:28 AM EDT (6/5) 5:46 PM EDT (6/5)
Length of Visible Light 16h 04m
Length of Day
14h 58m
Waning Crescent, 8% of the Moon is Illuminated
Jun 5
Waning Crescent
Jun 8
New
Jun 16
First Quarter
Jun 23
Full
Jun 30
Last Quarter

Hourly Weather History & Observations

Time (EDT) Temp. Dew Point Humidity Pressure Visibility Wind Dir Wind Speed Gust Speed Precip Events Conditions
12:51 AM 66.0 °F 39.0 °F 37% 30.11 in 10.0 mi NW 11.5 mph - N/A   Mostly Cloudy
1:51 AM 64.0 °F 37.0 °F 37% 30.11 in 10.0 mi North 3.5 mph - N/A   Mostly Cloudy
2:51 AM 62.1 °F 43.0 °F 50% 30.11 in 10.0 mi NNE 5.8 mph - N/A   Scattered Clouds
3:51 AM 62.1 °F 37.0 °F 39% 30.13 in 10.0 mi NE 3.5 mph - N/A   Partly Cloudy
4:51 AM 60.1 °F 39.9 °F 47% 30.13 in 10.0 mi NE 5.8 mph - N/A   Scattered Clouds
5:51 AM 59.0 °F 41.0 °F 51% 30.15 in 10.0 mi Calm Calm - N/A   Mostly Cloudy
6:51 AM 61.0 °F 39.9 °F 46% 30.18 in 10.0 mi NE 6.9 mph - N/A   Mostly Cloudy
7:51 AM 62.1 °F 42.1 °F 48% 30.20 in 10.0 mi NE 5.8 mph - N/A   Mostly Cloudy
8:51 AM 63.0 °F 43.0 °F 48% 30.21 in 10.0 mi NE 6.9 mph - N/A   Mostly Cloudy
9:51 AM 64.9 °F 46.0 °F 50% 30.21 in 10.0 mi NE 4.6 mph - N/A   Mostly Cloudy
10:51 AM 68.0 °F 46.9 °F 47% 30.20 in 10.0 mi NE 6.9 mph - N/A   Mostly Cloudy
11:51 AM 68.0 °F 48.0 °F 49% 30.18 in 10.0 mi NE 9.2 mph - N/A   Mostly Cloudy
12:51 PM 71.1 °F 48.0 °F 44% 30.17 in 10.0 mi NE 9.2 mph - N/A   Mostly Cloudy
1:51 PM 72.0 °F 43.0 °F 35% 30.15 in 10.0 mi East 10.4 mph 17.3 mph N/A   Mostly Cloudy
2:51 PM 72.0 °F 41.0 °F 33% 30.14 in 10.0 mi SE 8.1 mph 16.1 mph N/A   Mostly Cloudy
3:51 PM 72.0 °F 41.0 °F 33% 30.13 in 10.0 mi SE 9.2 mph 19.6 mph N/A   Scattered Clouds
4:51 PM 72.0 °F 39.9 °F 31% 30.14 in 10.0 mi SSE 11.5 mph - N/A   Mostly Cloudy
5:51 PM 71.1 °F 39.9 °F 32% 30.14 in 10.0 mi SSE 11.5 mph - N/A   Mostly Cloudy
6:51 PM 69.1 °F 41.0 °F 36% 30.14 in 10.0 mi South 8.1 mph - N/A   Mostly Cloudy
7:51 PM 68.0 °F 42.1 °F 39% 30.13 in 10.0 mi SSE 6.9 mph - N/A   Mostly Cloudy
8:51 PM 66.0 °F 46.0 °F 48% 30.13 in 10.0 mi SE 5.8 mph - N/A   Mostly Cloudy
9:51 PM 63.0 °F 51.1 °F 65% 30.14 in 10.0 mi SSE 8.1 mph - N/A   Scattered Clouds
10:51 PM 63.0 °F 52.0 °F 67% 30.15 in 10.0 mi South 5.8 mph - N/A   Partly Cloudy
11:51 PM 62.1 °F 54.0 °F 75% 30.14 in 10.0 mi SE 4.6 mph - N/A   Partly Cloudy